User: anonymous   Login
Location: ROBOsky.com Wild Flower Ridge Observatory
(43.9736°N, 79.9739°W)
Time: 13:20:07
(UTC-05:00)
Language:

Cosmos 1190 Rocket - Orbit

View from above orbital plane
View from above orbital plane
View from above satellite
View from above satellite

Ground track
Ground track

The orbit data is extracted from the following two-line orbital elements,

1 11870U 80056B   16338.64550910  .00000071  00000-0  32717-4 0  9999
2 11870  74.0519 206.7766 0017025 211.4903 148.5232 14.36824770906725
Epoch (UTC): 03 December 2016 15:29:31
Eccentricity: 0.0017025
inclination: 74.0519°
perigee height: 757 km
apogee height: 781 km
right ascension of ascending node: 206.7766°
argument of perigee: 211.4903°
revolutions per day: 14.36824770
mean anomaly at epoch: 148.5232°
orbit number at epoch: 90672

The dashed part of the orbit path shows where the satellite is in the earth's shadow,  

DLR